Flag for Germany Weather past 2 weeks in Westerland, Schleswig-Holstein, Germany

Now
41 °F

Low clouds.


Feels Like: 35 °F
Forecast: 42 / 45 °F
Wind: 8 mph from Southeast

Location: List / Sylt

Current Time: Mar 27, 2015 at 3:54:32 AM

Latest Report: Mar 27, 2015 at 3:00 AM


Visibility: 3 mi

Pressure: 29.65 "Hg

Humidity: 88%

Dew point: 37 °F

Location of WesterlandLocation

Historic Weather in Westerland — Graph

°F

Westerland temperature yesterday

Maximum temperature yesterday: 44 °F (at 2:00 PM)
Minimum temperature yesterday: 39 °F (at 6:00 AM)
Average temperature yesterday: 42 °F

Past Weeks' High & Low Weather Summary

 TemperatureHumidityPressure
High56 °F (Mar 18, 4:00 PM)100% (Mar 12, 6:00 AM)30.57 "Hg (Mar 12, 6:00 AM)
Low33 °F (Mar 22, 7:00 AM)53% (Mar 19, 5:00 PM)29.63 "Hg (Mar 26, 3:00 AM)
Average42 °F81%30.22 "Hg
* Reported Mar 12 3:00 AM — Mar 27 3:00 AM, Westerland, Weather by CustomWeather, © 2015

Note: Actual official high and low records may vary slightly from our data, if they occured in-between our weather recording intervals... More about our weather records

Advertising

Westerland weather history for previous 24 hours

 ConditionsComfort  
Time TempWeatherWind HumidityBarometerVisibility
3:00 AM
Fri, Mar 27
41 °FLow clouds.8 mph88%29.65 "Hg2 mi
2:00 AM40 °FLight rain. Low clouds.8 mph90%29.66 "Hg3 mi
1:00 AM41 °FDrizzle. Overcast.9 mph83%29.66 "Hg4 mi
12:00 AM41 °FLight rain. Overcast.9 mph86%29.66 "Hg6 mi
11:00 PM
Thu, Mar 26
41 °FLight rain. Overcast.8 mph86%29.67 "Hg6 mi
10:00 PM41 °FLight rain. Overcast.7 mph84%29.68 "Hg9 mi
9:00 PM41 °FOvercast.6 mph84%29.69 "Hg16 mi
8:00 PM42 °FOvercast.6 mph77%29.69 "Hg34 mi
7:00 PM42 °FOvercast.6 mph73%29.69 "Hg31 mi
6:00 PM42 °FOvercast.6 mph73%29.69 "Hg43 mi
5:00 PM42 °FOvercast.6 mph72%29.68 "Hg43 mi
3:00 PM43 °FOvercast.8 mph74%29.68 "Hg19 mi
2:00 PM44 °FOvercast.7 mph69%29.69 "Hg14 mi
1:00 PM43 °FOvercast.8 mph76%29.69 "Hg7 mi
12:00 PM43 °FOvercast.7 mph83%29.68 "Hg9 mi
11:00 AM41 °FRain. Low clouds.7 mph93%29.68 "Hg3 mi
9:00 AM41 °FLow clouds.6 mph88%29.68 "Hg34 mi
8:00 AM41 °FOvercast.5 mph82%29.67 "Hg43 mi
7:00 AM39 °FOvercast.6 mph85%29.67 "Hg43 mi
6:00 AM39 °FOvercast.7 mph86%29.66 "Hg19 mi
5:00 AM39 °FOvercast.8 mph86%29.64 "Hg13 mi
3:00 AM40 °FLow clouds.7 mph95%29.63 "Hg2 mi
Weather by CustomWeather, © 2015

See weather overviewHow to use our weather pages